Wind_Speed
9 9 9 9 8 8 9 8 8 8 9 10 10 10 9 9 9 9 8 8 8 7 8 8 7 7 6 5 4 4 4 3 3 4 4 3 3 3 3 2 2 1 0 0 1 1 2 2 3
9 9 9 9 9 9 9 9 9 9 9 10 10 10 9 10 10 9 9 9 9 8 9 8 7 6 5 5 4 3 2 3 3 3 3 3 3 3 3 2 2 2 1 1 2 2 3 3 3
10 10 9 10 10 10 9 9 9 9 10 11 11 10 10 10 10 10 10 9 9 9 9 8 7 6 5 5 4 3 2 2 2 2 3 3 2 3 3 3 2 2 2 2 3 3 4 4 4
10 10 10 11 11 11 10 10 10 10 11 11 12 11 10 10 10 10 10 9 9 10 9 8 7 6 5 4 3 2 2 1 1 2 2 2 3 3 4 3 3 3 3 3 3 4 4 4 4
11 11 11 11 11 11 12 12 12 11 11 11 12 12 11 11 10 10 10 10 10 11 10 9 8 7 6 4 4 3 2 1 1 2 3 3 3 4 4 4 3 3 3 4 4 4 4 4 5
12 12 12 12 12 12 12 12 13 13 12 12 12 12 11 11 11 10 10 10 11 11 11 9 8 6 5 5 4 3 3 2 1 2 3 4 4 4 4 4 4 4 3 3 4 4 5 5 5
12 13 13 12 12 12 12 12 13 13 12 12 13 12 12 11 11 11 10 10 11 12 11 9 9 8 6 6 5 3 2 1 1 2 3 4 4 4 5 5 4 4 4 4 4 4 5 5 6
13 13 13 13 13 13 12 12 13 14 13 13 13 13 13 12 11 10 10 10 12 12 11 11 10 9 7 6 5 3 2 1 1 2 3 3 4 5 5 5 5 4 4 4 4 5 6 6 6
12 13 13 14 13 13 13 13 13 14 14 13 13 13 13 12 11 11 11 11 12 12 12 11 10 9 8 7 5 4 2 1 1 1 3 4 4 5 5 6 6 5 4 4 4 5 6 6 6
12 13 14 14 14 14 14 13 12 13 13 13 13 13 12 12 13 13 12 12 13 13 12 12 10 9 8 7 6 4 3 2 2 2 4 4 5 5 6 6 6 5 5 4 4 5 6 6 6
12 12 13 14 15 14 14 14 13 13 13 14 14 13 12 12 13 14 13 13 13 13 13 12 11 10 8 8 6 5 3 2 2 3 4 5 5 5 6 6 5 5 5 5 5 6 6 6 7
11 12 13 13 14 14 14 14 14 14 14 14 15 14 13 12 13 13 13 14 13 14 13 12 12 10 9 7 6 5 4 3 3 4 4 5 5 5 6 6 5 5 5 5 5 5 6 6 6
11 11 13 13 14 14 14 14 14 14 14 15 15 15 14 13 13 14 15 15 15 14 13 12 12 11 9 8 6 5 4 4 4 4 4 5 5 5 6 5 5 5 5 5 5 6 6 6 6
11 12 13 13 14 14 14 15 15 15 14 15 15 14 14 14 13 14 14 14 15 14 13 13 12 11 10 9 7 6 5 4 4 4 5 5 5 5 6 5 5 5 5 5 6 6 6 6 6
12 12 13 14 14 14 14 15 15 16 15 15 15 14 13 14 14 14 14 14 15 14 13 13 13 12 10 10 8 6 5 4 4 4 5 5 5 5 5 5 5 5 5 6 6 6 6 5 5
11 12 13 14 14 14 15 15 16 16 16 16 15 15 14 15 15 15 14 14 14 14 13 13 13 12 10 10 8 7 6 4 5 5 5 5 5 5 5 5 5 5 5 6 6 5 5 4 4
11 12 13 14 14 14 15 15 16 16 17 16 16 16 15 15 16 15 15 14 14 14 13 12 12 12 11 9 8 7 6 5 5 5 5 4 4 5 5 5 5 5 5 5 5 4 4 3 3
11 12 13 13 14 14 15 16 16 17 16 16 16 16 15 15 16 16 15 15 15 14 13 12 11 11 10 9 8 7 6 5 5 5 4 4 4 4 4 5 5 5 5 5 4 3 3 3 2
10 11 12 13 13 14 14 15 17 17 16 16 16 17 17 16 16 16 16 16 15 14 14 12 12 11 10 9 9 8 7 6 5 5 5 4 4 4 4 4 5 4 4 4 3 3 3 3 2
11 11 12 13 13 12 13 14 15 16 16 16 16 16 16 17 17 17 17 17 16 15 14 13 12 11 10 10 9 8 7 6 6 5 4 4 4 5 4 4 4 4 3 3 2 2 3 3 2
10 11 12 12 12 13 13 13 14 15 16 16 16 16 17 17 17 17 17 17 16 15 15 14 13 12 11 10 9 9 7 7 6 5 4 4 4 4 3 3 3 3 2 2 2 2 2 2 1
10 10 11 12 12 13 13 13 14 14 15 17 17 17 17 17 17 18 18 18 17 16 16 15 14 13 11 11 10 9 8 7 7 6 5 4 3 3 3 3 3 2 2 2 2 2 2 2 1
10 10 10 10 11 12 13 12 13 14 15 16 16 17 18 18 18 18 18 18 17 17 16 15 14 14 12 11 10 9 9 7 7 6 5 4 4 3 3 3 3 2 2 2 3 2 2 2 1
9 9 10 10 10 11 12 12 12 13 14 15 15 16 17 18 18 18 18 18 18 17 16 15 14 14 13 12 11 10 9 8 8 7 6 5 5 4 4 3 3 3 3 3 2 2 1 1 1
9 9 9 10 10 11 11 12 13 13 13 14 14 15 17 18 18 18 18 18 18 17 16 16 14 14 14 13 12 11 10 9 9 8 7 6 6 5 4 4 4 4 4 3 2 2 2 2 2
10 10 10 9 10 10 11 12 13 13 13 13 14 15 15 17 17 17 18 18 18 18 17 16 15 14 14 14 12 12 10 10 9 8 7 7 6 5 5 4 4 4 4 5 4 4 3 3 3
10 10 10 11 10 9 10 10 11 12 12 12 13 14 15 15 16 16 17 17 17 17 17 16 16 15 15 15 14 12 11 11 10 9 8 7 7 6 5 5 5 4 4 3 3 3 4 4 4
9 9 11 10 10 9 9 9 11 12 13 13 13 14 15 15 15 16 17 17 17 17 17 17 17 16 15 15 14 13 12 12 12 10 9 9 8 7 7 6 6 5 4 4 4 4 5 5 5
9 9 9 10 10 10 9 10 11 12 13 14 14 14 14 14 14 14 15 17 18 18 17 18 17 16 16 15 15 14 13 13 12 11 9 9 9 9 8 7 6 6 6 6 6 6 6 6 6
9 10 10 10 10 10 10 10 11 12 13 13 13 13 14 14 14 14 15 16 17 18 17 17 17 16 16 16 16 15 14 13 13 12 11 10 10 10 9 8 7 7 7 7 7 7 7 6 6
Wind_Direction
232 229 228 226 224 220 223 218 210 202 195 191 191 192 188 185 184 185 184 178 172 171 171 171 165 159 152 144 132 118 107 92 86 77 72 70 58 56 56 46 33 28 23 178 202 207 216 219 224
236 231 227 225 223 223 220 217 207 200 197 194 193 193 193 191 190 188 184 178 177 176 173 172 168 170 165 162 151 137 114 90 77 68 64 62 45 33 29 19 1 339 306 256 243 241 239 237 239
236 232 227 226 225 222 217 212 205 198 194 192 191 192 192 194 191 188 184 178 179 177 174 174 172 174 168 163 156 138 116 94 76 57 50 41 18 7 359 354 344 327 304 272 253 251 252 248 245
234 232 228 224 225 221 215 211 208 202 198 194 194 195 195 197 192 188 185 182 181 178 175 180 181 179 176 172 169 162 153 122 70 38 32 14 352 346 345 341 337 326 309 283 263 257 256 253 248
233 230 228 224 222 217 213 210 208 204 203 199 199 201 201 200 195 188 184 184 184 180 181 186 181 178 177 174 180 177 164 145 65 34 20 360 343 337 337 326 325 319 305 287 267 256 256 254 254
231 229 228 225 221 216 214 211 210 208 208 205 204 203 204 202 197 190 187 185 188 185 188 190 187 183 179 177 178 170 143 114 58 27 7 354 346 338 334 326 327 324 311 290 272 259 257 257 260
230 228 226 224 220 217 215 213 210 207 207 208 208 208 210 204 199 193 190 191 190 193 195 191 190 186 184 185 181 170 150 98 26 357 352 343 341 342 341 338 329 321 309 293 279 269 266 263 265
229 226 221 219 216 215 216 214 211 208 207 209 209 209 211 205 197 195 196 196 196 196 197 194 192 192 190 192 193 196 190 188 312 322 330 333 336 341 347 345 335 324 313 299 288 277 270 269 267
228 220 217 215 214 214 216 215 213 210 210 211 209 211 214 207 201 199 199 200 199 197 197 194 196 195 196 200 200 209 215 242 278 315 335 337 334 336 345 345 341 335 323 310 296 284 276 274 271
228 223 218 215 215 215 216 214 212 214 213 212 210 210 210 209 206 204 203 203 205 203 200 199 197 197 200 204 205 210 221 247 275 312 330 336 338 340 344 343 341 336 327 312 299 291 284 279 275
226 221 217 214 214 215 217 216 213 215 217 212 210 208 207 209 209 209 210 208 206 201 200 202 201 201 203 204 206 214 228 251 278 309 326 334 333 335 337 332 327 328 322 311 300 291 285 280 276
224 219 215 211 208 211 214 215 214 214 214 213 211 209 211 213 215 215 212 210 205 203 202 202 204 207 208 209 210 219 235 250 275 301 313 324 326 331 334 326 321 321 317 308 299 296 292 286 282
221 218 216 213 212 213 213 213 214 214 214 213 213 211 214 219 219 216 213 213 210 205 203 201 204 204 209 214 216 226 243 258 274 290 304 318 322 327 322 318 317 318 315 310 304 301 298 292 282
222 219 216 216 216 215 215 214 215 215 216 216 216 213 215 218 216 211 210 212 207 206 202 201 204 205 210 214 218 233 246 257 270 288 302 317 324 328 324 320 317 319 317 314 305 299 297 288 282
224 221 220 217 218 217 216 217 218 219 218 217 216 216 216 218 216 214 212 213 207 204 204 205 204 206 212 215 220 231 241 255 272 287 303 314 322 322 320 318 318 317 316 314 308 302 297 287 277
225 222 221 220 220 220 220 220 220 220 219 219 218 216 215 214 212 214 212 212 208 205 204 204 205 208 211 214 220 230 242 262 273 281 296 309 318 320 320 321 323 324 322 320 313 307 302 294 282
225 223 223 223 222 220 220 218 219 219 219 219 219 218 217 212 210 212 211 212 209 203 202 204 206 208 211 213 220 231 242 260 271 280 289 304 319 323 324 320 323 329 326 321 317 310 307 304 289
228 224 223 223 219 217 219 219 218 219 218 219 219 218 216 212 210 210 210 208 206 202 204 206 207 209 213 219 222 230 240 251 262 274 283 299 315 319 322 324 325 328 328 320 319 319 314 307 283
227 226 224 219 216 217 217 216 217 220 219 218 218 216 215 213 211 211 210 207 205 204 206 211 210 211 214 217 223 230 235 246 257 270 279 294 305 310 316 324 328 330 330 324 325 329 324 301 274
226 225 223 221 220 219 215 217 221 218 220 218 215 215 215 212 211 210 209 210 209 208 210 214 212 211 211 217 227 232 234 245 257 270 280 293 300 302 310 320 327 332 333 341 342 337 328 316 291
224 223 224 225 223 223 219 220 222 218 219 217 217 218 215 213 210 210 210 211 212 212 215 216 213 211 215 221 228 232 239 245 252 262 274 285 292 298 306 320 329 333 338 350 350 341 333 330 302
227 223 221 223 223 223 221 224 221 221 219 219 220 219 216 216 213 212 210 212 215 216 217 217 214 214 219 223 228 231 239 247 251 257 268 270 278 285 292 302 320 335 337 346 345 345 356 352 335
223 220 216 220 221 223 225 225 222 222 220 219 221 220 219 217 214 213 214 214 216 217 219 217 218 219 221 225 229 233 240 245 251 257 261 258 261 266 270 278 297 312 309 327 342 351 7 10 7
222 218 216 217 220 223 222 221 222 223 220 220 221 221 220 217 216 219 217 217 218 218 221 222 224 224 225 227 230 235 240 242 245 250 252 248 251 255 259 264 271 281 290 297 318 331 338 345 357
216 217 218 221 224 225 222 222 223 223 220 220 223 222 220 217 217 219 219 218 219 221 223 222 228 230 229 228 230 235 239 240 242 245 245 245 247 254 256 263 268 275 275 276 281 286 303 312 316
217 218 219 221 225 228 225 226 223 222 223 224 223 221 218 216 217 220 221 223 225 227 226 223 229 232 232 231 233 234 238 240 242 241 242 244 247 253 258 263 272 283 272 265 267 276 292 301 302
215 220 222 226 226 225 223 221 221 220 223 226 224 217 216 218 221 223 224 225 226 228 228 226 228 229 231 231 233 234 237 238 240 244 242 244 248 250 251 259 266 274 287 286 280 280 284 286 291
220 222 223 224 223 222 218 219 219 220 224 225 221 218 219 221 223 224 225 225 225 226 228 227 228 232 233 233 232 234 238 237 237 242 243 244 248 249 249 250 256 265 275 282 286 291 289 287 285
221 222 222 221 220 221 219 219 220 224 226 226 224 221 221 222 223 223 227 229 230 228 228 230 231 231 232 234 232 234 237 238 239 243 247 250 251 248 248 251 253 257 265 274 279 283 287 285 281
225 225 227 226 226 225 227 225 226 229 228 230 229 227 226 225 226 229 233 233 231 229 228 229 229 231 230 233 233 235 236 237 239 240 247 251 251 246 248 252 253 258 262 269 277 280 280 281 281
Height
5877 5878 5879 5881 5883 5883 5884 5885 5886 5887 5888 5889 5890 5891 5892 5893 5895 5898 5896 5896 5896 5897 5897 5898 5899 5899 5900 5900 5901 5901 5901 5901 5901 5900 5900 5899 5899 5898 5898 5897 5896 5896 5896 5896 5896 5896 5896 5896 5896
5875 5876 5878 5880 5881 5881 5883 5883 5884 5886 5887 5888 5889 5890 5891 5892 5893 5894 5894 5895 5896 5896 5897 5898 5899 5899 5899 5900 5901 5901 5901 5901 5901 5900 5900 5899 5899 5898 5897 5896 5896 5895 5895 5895 5895 5895 5895 5895 5895
5873 5874 5877 5878 5879 5880 5881 5882 5883 5884 5885 5887 5888 5889 5890 5891 5892 5893 5894 5894 5895 5896 5897 5898 5898 5899 5899 5900 5901 5901 5901 5901 5901 5900 5899 5899 5898 5898 5897 5896 5895 5895 5894 5894 5894 5894 5894 5894 5894
5871 5873 5875 5876 5877 5878 5879 5880 5881 5883 5884 5885 5887 5888 5889 5890 5891 5892 5893 5894 5895 5896 5897 5897 5897 5899 5899 5900 5900 5900 5901 5901 5900 5900 5899 5899 5898 5897 5896 5896 5895 5894 5894 5893 5893 5893 5893 5893 5893
5869 5871 5872 5873 5874 5876 5877 5878 5880 5881 5883 5884 5886 5887 5888 5889 5890 5891 5892 5893 5894 5895 5896 5896 5897 5898 5899 5899 5900 5900 5900 5900 5900 5900 5899 5898 5897 5896 5896 5895 5894 5893 5893 5892 5892 5892 5892 5892 5892
5867 5868 5870 5871 5872 5874 5875 5877 5878 5880 5881 5883 5884 5885 5886 5887 5888 5890 5891 5892 5893 5895 5895 5896 5897 5898 5898 5899 5900 5900 5900 5900 5899 5899 5898 5898 5897 5896 5895 5894 5893 5892 5892 5891 5891 5891 5891 5891 5891
5865 5866 5867 5869 5870 5872 5874 5875 5877 5878 5880 5881 5882 5884 5885 5886 5887 5889 5890 5891 5893 5894 5895 5896 5896 5897 5897 5898 5899 5899 5900 5900 5899 5899 5898 5897 5896 5895 5895 5894 5892 5892 5891 5890 5890 5890 5890 5890 5890
5861 5864 5865 5866 5868 5870 5872 5873 5874 5876 5878 5880 5881 5882 5883 5885 5886 5887 5889 5890 5892 5893 5894 5895 5896 5897 5897 5898 5899 5899 5899 5900 5899 5898 5898 5897 5896 5895 5894 5893 5892 5891 5890 5889 5889 5889 5889 5888 5889
5859 5862 5862 5864 5866 5868 5869 5871 5873 5874 5876 5878 5879 5881 5882 5883 5885 5887 5888 5889 5890 5892 5893 5894 5895 5896 5897 5898 5899 5899 5899 5899 5899 5898 5897 5896 5895 5894 5893 5892 5891 5890 5889 5889 5888 5888 5887 5887 5887
5857 5859 5860 5862 5864 5865 5867 5869 5871 5873 5874 5876 5877 5879 5880 5882 5884 5885 5887 5888 5889 5891 5892 5893 5895 5896 5897 5898 5898 5899 5899 5899 5898 5898 5897 5896 5895 5894 5893 5891 5890 5889 5889 5888 5887 5887 5886 5886 5886
5854 5856 5858 5860 5861 5863 5865 5867 5869 5871 5872 5874 5876 5877 5878 5880 5882 5883 5885 5886 5888 5890 5891 5893 5894 5895 5896 5897 5898 5898 5899 5898 5898 5897 5896 5896 5894 5893 5892 5891 5890 5889 5888 5887 5886 5886 5885 5884 5884
5852 5854 5856 5857 5859 5861 5863 5865 5867 5869 5871 5872 5874 5875 5877 5878 5880 5881 5883 5885 5887 5888 5890 5892 5893 5894 5896 5896 5897 5898 5898 5898 5897 5897 5896 5895 5894 5893 5891 5890 5889 5888 5887 5886 5885 5885 5884 5883 5883
5850 5852 5854 5856 5858 5859 5861 5863 5865 5867 5868 5870 5872 5873 5875 5876 5878 5879 5882 5884 5885 5887 5889 5890 5892 5893 5895 5896 5896 5897 5897 5897 5897 5896 5895 5894 5893 5892 5891 5889 5888 5887 5886 5885 5884 5884 5883 5882 5881
5848 5850 5852 5854 5856 5858 5860 5861 5863 5865 5866 5868 5870 5871 5873 5874 5876 5878 5880 5882 5884 5886 5887 5889 5891 5892 5894 5895 5895 5896 5896 5896 5896 5895 5894 5893 5892 5891 5890 5889 5887 5886 5885 5884 5883 5882 5882 5881 5880
5846 5848 5850 5852 5854 5856 5858 5860 5861 5863 5864 5866 5868 5869 5871 5873 5874 5876 5878 5881 5882 5884 5886 5888 5889 5891 5892 5893 5894 5895 5895 5895 5895 5894 5893 5892 5891 5890 5889 5888 5887 5885 5884 5883 5882 5881 5880 5879 5879
5844 5846 5848 5850 5852 5854 5857 5858 5859 5860 5862 5864 5866 5868 5869 5871 5873 5875 5877 5879 5881 5883 5885 5887 5888 5890 5891 5892 5893 5893 5894 5894 5894 5893 5893 5892 5890 5889 5888 5887 5886 5884 5883 5882 5881 5880 5879 5878 5877
5842 5844 5846 5848 5849 5851 5853 5855 5856 5858 5860 5862 5864 5866 5868 5869 5871 5873 5875 5877 5880 5882 5884 5886 5887 5889 5890 5891 5892 5892 5892 5893 5893 5892 5892 5891 5889 5888 5887 5886 5885 5883 5882 5881 5880 5879 5878 5877 5877
5840 5842 5843 5845 5847 5849 5850 5852 5854 5855 5858 5860 5862 5864 5866 5868 5869 5871 5874 5876 5878 5880 5883 5884 5886 5887 5888 5890 5890 5891 5892 5892 5892 5891 5891 5890 5889 5888 5886 5885 5884 5883 5882 5881 5879 5878 5877 5877 5876
5838 5839 5841 5843 5844 5846 5848 5850 5851 5853 5855 5857 5859 5862 5864 5866 5868 5870 5872 5875 5877 5879 5881 5883 5884 5886 5887 5888 5889 5890 5890 5891 5890 5890 5889 5889 5888 5887 5886 5885 5883 5882 5881 5880 5879 5878 5877 5876 5875
5836 5838 5839 5841 5842 5845 5846 5848 5849 5850 5852 5855 5857 5859 5861 5863 5866 5868 5871 5873 5875 5878 5880 5881 5883 5884 5886 5887 5888 5888 5889 5889 5889 5889 5888 5887 5887 5886 5885 5884 5883 5882 5880 5879 5878 5878 5877 5876 5875
5834 5836 5837 5839 5841 5842 5845 5846 5847 5848 5850 5852 5855 5857 5859 5861 5864 5866 5869 5871 5874 5876 5878 5880 5881 5883 5884 5885 5886 5887 5887 5888 5888 5888 5887 5886 5885 5885 5884 5883 5882 5881 5880 5879 5878 5877 5876 5876 5875
5832 5833 5835 5837 5839 5841 5843 5844 5846 5846 5848 5850 5853 5855 5857 5859 5862 5864 5867 5870 5872 5874 5876 5878 5879 5881 5882 5884 5885 5885 5886 5886 5886 5886 5885 5885 5884 5884 5883 5882 5881 5881 5880 5879 5878 5877 5876 5875 5875
5830 5832 5833 5835 5837 5839 5841 5842 5844 5844 5846 5848 5850 5852 5855 5857 5860 5862 5865 5868 5870 5872 5874 5876 5877 5879 5880 5882 5883 5884 5884 5884 5884 5884 5884 5883 5883 5883 5882 5881 5881 5880 5879 5878 5878 5877 5876 5875 5875
5829 5830 5832 5833 5835 5838 5839 5840 5842 5842 5844 5846 5847 5850 5852 5855 5857 5860 5863 5865 5868 5870 5872 5874 5875 5877 5878 5880 5881 5882 5882 5883 5883 5882 5882 5882 5882 5882 5881 5880 5880 5879 5879 5878 5877 5876 5876 5875 5874
5827 5830 5831 5833 5834 5836 5837 5838 5840 5841 5842 5844 5846 5848 5850 5853 5855 5858 5860 5863 5865 5868 5869 5872 5873 5875 5876 5877 5879 5880 5880 5881 5881 5881 5881 5881 5881 5880 5880 5879 5879 5878 5878 5877 5876 5876 5875 5875 5874
5826 5828 5831 5832 5833 5834 5835 5836 5838 5839 5840 5842 5844 5845 5847 5850 5853 5855 5858 5860 5862 5865 5867 5869 5871 5872 5873 5875 5876 5877 5878 5879 5879 5879 5879 5879 5879 5879 5879 5878 5878 5877 5876 5875 5875 5875 5875 5874 5873
5824 5825 5828 5829 5830 5832 5833 5834 5836 5837 5838 5840 5841 5843 5845 5847 5850 5852 5855 5857 5859 5862 5864 5866 5868 5870 5871 5872 5874 5875 5876 5876 5877 5877 5877 5877 5878 5878 5877 5877 5876 5876 5875 5875 5874 5874 5873 5873 5873
5823 5824 5825 5827 5828 5830 5832 5833 5834 5834 5836 5837 5839 5840 5842 5845 5847 5849 5852 5854 5856 5859 5861 5863 5865 5867 5868 5870 5871 5872 5873 5874 5874 5875 5875 5876 5876 5876 5876 5876 5875 5875 5874 5874 5873 5873 5872 5872 5871
5821 5822 5823 5825 5826 5828 5830 5833 5831 5832 5833 5835 5836 5838 5840 5842 5844 5847 5849 5851 5853 5856 5858 5860 5862 5864 5865 5867 5869 5870 5871 5871 5872 5873 5873 5874 5874 5874 5874 5874 5874 5873 5873 5872 5872 5872 5871 5871 5870
5818 5820 5821 5823 5824 5826 5827 5832 5828 5829 5831 5832 5834 5835 5837 5840 5842 5844 5846 5848 5850 5852 5854 5856 5859 5860 5862 5864 5866 5867 5868 5869 5870 5871 5871 5872 5872 5872 5872 5872 5872 5872 5871 5871 5871 5870 5869 5869 5869